Tracking 22124 objects as of 23-Jan-2021
HD Live streaming from Space Station
objects crossing your sky now

SL-14 DEB

Track SL-14 DEB now!
10-day predictions


NORAD ID: 29065
Int'l Code: 1978-100AX
Perigee: 1,678.7 km
Apogee: 1,709.2 km
Inclination: 82.5 °
Period: 120.1 minutes
Semi major axis: 8064 km
RCS: 0.015 m2 (small)
Launch date: October 26, 1978
Source: Commonwealth of Independent States (former USSR) (CIS)
Launch site: PLESETSK MISSILE AND SPACE COMPLEX (PKMTR)

Note: This is SATELLITE DEBRIS
aabbcc
Your satellite tracking list
Your tracking list is empty




NASA's NSSDC Master Catalog

Two Line Element Set (TLE):
1 29065U 78100AX  21022.82994461  .00000026  00000-0  22489-3 0  9994
2 29065  82.5379  47.6116 0018959 228.8111 306.5564 11.98671022342957
Source of the keplerian elements: AFSPC